Location: Leo
(52.0556°N, 112.3605°W)
Time: 09:30:57
(UTC+00:00)

UNISAT 6 - Visible Passes

Search period start: 08 December 2023 00:00
Search period end: 18 December 2023 00:00
Orbit: 598 x 673 km, 97.7° (Epoch: 07 December)

Date Brightness Start Highest point End Pass type
(mag) Time Alt. Az. Time Alt. Az. Time Alt. Az.
08 Dec ? 00:16:54 10° NNE 00:21:11 45° E 00:25:21 10° S visible
08 Dec ? 01:53:44 10° N 01:57:25 26° WNW 02:01:03 10° WSW visible
09 Dec ? 00:38:50 10° NNE 00:43:18 73° ESE 00:47:36 10° S visible
09 Dec ? 02:16:14 10° NNW 02:19:14 18° WNW 02:22:10 10° W visible
10 Dec ? 01:00:53 10° N 01:05:19 72° WNW 01:09:37 10° SSW visible
10 Dec ? 02:39:08 10° NNW 02:40:58 12° NW 02:42:46 10° WNW visible
11 Dec ? 01:23:03 10° N 01:27:16 45° WNW 01:31:23 10° SW visible
12 Dec ? 00:08:40 10° NNE 00:12:47 38° E 00:16:48 10° SSE visible
12 Dec ? 01:45:19 10° N 01:49:09 30° WNW 01:52:53 10° SW visible
13 Dec ? 00:30:32 10° NNE 00:34:54 61° E 00:39:08 10° S visible
13 Dec ? 02:07:44 10° NNW 02:10:56 20° WNW 02:14:06 10° WSW visible
14 Dec ? 00:52:31 10° NNE 00:56:56 84° WNW 01:01:13 10° SSW visible
14 Dec ? 02:30:27 10° NNW 02:32:41 14° NW 02:34:54 10° W visible
15 Dec ? 01:14:37 10° N 01:18:53 53° WNW 01:23:02 10° SW visible
16 Dec ? 00:00:22 10° NNE 00:04:17 32° E 00:08:07 10° SSE visible
16 Dec ? 01:36:49 10° N 01:40:46 34° WNW 01:44:37 10° SW visible
17 Dec ? 00:22:09 10° NNE 00:26:24 51° E 00:30:33 10° S visible
17 Dec ? 01:59:09 10° N 02:02:34 23° WNW 02:05:55 10° WSW visible
